User: anonymous   Login
Location: Huntington Beach
(33.6600°N, 117.9980°W)
Time: 15:50:35
(UTC-08:00)
Language:

SL-16 R/B - Orbit

View from above orbital plane
View from above orbital plane
View from above satellite
View from above satellite

Ground track
Ground track

The orbit data is extracted from the following two-line orbital elements,

1 28353U 04021B   18054.53127766 -.00000247  00000-0 -10456-3 0  9997
2 28353  70.9988 271.3506 0005566 205.1678 154.9174 14.14207971707695
Epoch (UTC): 23 February 2018 12:45:02
Eccentricity: 0.0005566
inclination: 70.9988°
perigee height: 841 km
apogee height: 849 km
right ascension of ascending node: 271.3506°
argument of perigee: 205.1678°
revolutions per day: 14.14207971
mean anomaly at epoch: 154.9174°
orbit number at epoch: 70769

The dashed part of the orbit path shows where the satellite is in the earth's shadow,  

DLR